Simultaneous Nadir Overpasses (SNOs) Predictions

Prediction of SNOs between AQUA and NOAA-19 Satellite Orbit:

Table of predicted SNOs for the next 14.0 days since TLE Epoch: 9/28/2012
Index Date (AQUA) Time (AQUA) AQUA Lat,Lon Date (NOAA-19) Time (NOAA-19) NOAA-19 Lat,Lon Distance(km) Time Diff (sec)
1 09/28/2012 16:10:55 46.01, 149.61 09/28/2012 16:10:21 45.95, 150.02 32.43 34
2 09/28/2012 16:59:23 -49.67, -41.32 09/28/2012 17:00:25 -49.68, -41.19 9.60 62
3 09/30/2012 20:55:25 46.05, 78.50 09/30/2012 20:54:56 45.99, 78.90 31.47 29
4 09/30/2012 21:43:47 -50.07,-112.28 09/30/2012 21:44:55 -50.03,-112.18 9.25 68
5 10/03/2012 01:40:08 46.03, 7.31 10/03/2012 01:39:32 45.97, 7.74 34.25 36
6 10/03/2012 02:28:37 -49.66, 176.36 10/03/2012 02:29:38 -49.63, 176.50 10.48 61
7 10/05/2012 06:25:03 46.02, -63.93 10/05/2012 06:24:09 45.90, -63.43 40.75 54
8 10/05/2012 07:13:50 -48.59, 104.69 10/05/2012 07:14:33 -48.55, 104.88 14.53 43
9 10/07/2012 11:59:27 -46.82, 32.72 10/07/2012 11:59:40 -46.77, 32.99 21.31 13
10 10/07/2012 12:32:10 70.27, -7.82 10/07/2012 12:33:22 69.87, -10.00 93.94 72
11 10/09/2012 16:44:59 -46.06, -38.90 10/09/2012 16:44:30 -45.96, -38.49 34.15 29
12 10/09/2012 17:33:26 49.46, 130.08 10/09/2012 17:34:24 49.41, 130.24 13.05 58
13 10/11/2012 22:19:51 46.27, 57.44 10/11/2012 22:19:55 46.23, 57.75 24.63 4




NCC Satellite Simultaneous Nadir Overpasses (SNOs) Prediction Service
